カタログに戻る

STARLINK-4719

運用中通信VLEO
NORAD 53774·PAYLOAD·🇺🇸 United States

打ち上げ Sep 11, 2022 から Cape Canaveral Space Force Station

Loading…

次のパス (今後24時間)

TLE

最新Source: CelesTrak SupGP

元期: Sep 14, 2026, 22:22 UTC

1 53774C 22111B   26257.93243056 -.00017310  00000+0 -55670-3 0  2573
2 53774  53.1585 144.4574 0001542  85.8661 160.4511 15.31707641    14

AllMySatでSTARLINK-4719をリアルタイム追跡

Download on the App Store